When you browse on this site, cookies collect data to enhance your experience and personalize the content and advertising you see.
Visit our Privacy Policy to learn more. By continuing to use the site, you agree to this use of cookies and data.
  • In Romania
  • List of Countries
  • For 7 days
  • Water Temperature
  • Weather Map
  • Weather Widgets
  • user-avatar
    Login

    Hourly Weather Balchik

    Today, 19 February, Wednesday

    Time Temperature Precipitation Wind Pressure Humidity
    00:00 +8°C° 0 mm 1 mps 741 mmHg 71%
    01:00 +7°C° 0 mm 2 mps 741 mmHg 74%
    02:00 +6°C° 0 mm 2 mps 742 mmHg 76%
    03:00 +5°C° 0 mm 3 mps 741 mmHg 77%
    04:00 +4°C° 0 mm 3 mps 741 mmHg 78%
    05:00 +4°C° 0 mm 3 mps 741 mmHg 80%
    06:00 +4°C° 0 mm 3 mps 741 mmHg 81%
    07:00 +4°C° 0 mm 3 mps 741 mmHg 83%
    08:00 +5°C° 0 mm 3 mps 742 mmHg 85%
    09:00 +5°C° 0.1 mm 3 mps 742 mmHg 85%
    10:00 +5°C° 0.1 mm 3 mps 742 mmHg 86%
    11:00 +6°C° 0.1 mm 4 mps 742 mmHg 86%
    12:00 +7°C° 0.1 mm 3 mps 741 mmHg 87%
    13:00 +7°C° 0.1 mm 3 mps 741 mmHg 87%
    14:00 +7°C° 0.1 mm 2 mps 741 mmHg 88%
    15:00 +7°C° 0 mm 2 mps 740 mmHg 88%
    16:00 +7°C° 0 mm 2 mps 740 mmHg 88%
    17:00 +7°C° 0 mm 2 mps 740 mmHg 87%
    18:00 +6°C° 0 mm 2 mps 740 mmHg 89%
    19:00 +6°C° 0 mm 2 mps 740 mmHg 90%
    20:00 +7°C° 0 mm 1 mps 740 mmHg 91%
    21:00 +7°C° 0 mm 1 mps 740 mmHg 92%
    22:00 +7°C° 0 mm 1 mps 739 mmHg 92%
    23:00 +6°C° 0 mm 1 mps 739 mmHg 92%

    Tomorrow, 20 February, Thursday

    Time Temperature Precipitation Wind Pressure Humidity
    00:00 +6°C° 0 mm 1 mps 739 mmHg 93%
    01:00 +6°C° 0 mm 1 mps 739 mmHg 94%
    02:00 +6°C° 0 mm 1 mps 739 mmHg 95%
    03:00 +6°C° 0 mm 1 mps 738 mmHg 95%
    04:00 +6°C° 0 mm 1 mps 738 mmHg 95%
    05:00 +5°C° 0 mm 1 mps 738 mmHg 96%
    06:00 +6°C° 0 mm 1 mps 738 mmHg 95%
    07:00 +6°C° 0 mm 1 mps 738 mmHg 94%
    08:00 +5°C° 0 mm 2 mps 738 mmHg 93%
    09:00 +5°C° 0 mm 2 mps 738 mmHg 90%
    10:00 +6°C° 0 mm 2 mps 739 mmHg 86%
    11:00 +6°C° 0 mm 2 mps 739 mmHg 83%
    12:00 +6°C° 0.1 mm 2 mps 739 mmHg 82%
    13:00 +7°C° 0.1 mm 2 mps 739 mmHg 81%
    14:00 +7°C° 0.1 mm 2 mps 739 mmHg 81%
    15:00 +7°C° 0.1 mm 2 mps 738 mmHg 81%
    16:00 +7°C° 0.1 mm 2 mps 738 mmHg 82%
    17:00 +6°C° 0.1 mm 2 mps 738 mmHg 82%
    18:00 +5°C° 0.1 mm 3 mps 739 mmHg 85%
    19:00 +5°C° 0.1 mm 3 mps 739 mmHg 88%
    20:00 +4°C° 0.1 mm 4 mps 739 mmHg 91%
    21:00 +4°C° 0.1 mm 4 mps 739 mmHg 90%
    22:00 +4°C° 0.1 mm 4 mps 740 mmHg 89%
    23:00 +3°C° 0.1 mm 5 mps 740 mmHg 88%

    Day after tomorrow, 21 February, Friday

    Time Temperature Precipitation Wind Pressure Humidity
    00:00 +2°C° 0 mm 5 mps 740 mmHg 88%
    01:00 +2°C° 0 mm 5 mps 740 mmHg 87%
    02:00 +3°C° 0 mm 4 mps 740 mmHg 86%
    03:00 +2°C° 0 mm 5 mps 741 mmHg 86%
    04:00 +1°C° 0 mm 5 mps 741 mmHg 86%
    05:00 +1°C° 0 mm 5 mps 741 mmHg 86%
    06:00 +1°C° 0 mm 5 mps 741 mmHg 85%
    07:00 +1°C° 0 mm 5 mps 742 mmHg 83%
    08:00 +1°C° 0 mm 5 mps 742 mmHg 82%
    15:00 +6°C° 0 mm 4 mps 743 mmHg 63%
    16:00 +6°C° 0 mm 4 mps 743 mmHg 64%
    17:00 +7°C° 0 mm 3 mps 742 mmHg 65%
    18:00 +5°C° 0 mm 3 mps 743 mmHg 69%
    19:00 +5°C° 0 mm 3 mps 743 mmHg 72%
    20:00 +4°C° 0 mm 3 mps 744 mmHg 75%
    21:00 +4°C° 0 mm 3 mps 743 mmHg 77%
    22:00 +3°C° 0 mm 3 mps 743 mmHg 79%
    23:00 +3°C° 0 mm 3 mps 743 mmHg 81%

    22 February, Saturday

    Time Temperature Precipitation Wind Pressure Humidity
    00:00 +3°C° 0 mm 3 mps 743 mmHg 82%
    01:00 +2°C° 0 mm 3 mps 743 mmHg 83%
    02:00 +1°C° 0 mm 4 mps 743 mmHg 84%
    03:00 +1°C° 0 mm 4 mps 743 mmHg 83%
    04:00 0°C° 0 mm 4 mps 742 mmHg 82%
    05:00 +1°C° 0 mm 3 mps 742 mmHg 81%
    06:00 0°C° 0 mm 4 mps 743 mmHg 83%
    07:00 0°C° 0 mm 4 mps 743 mmHg 85%
    08:00 0°C° 0 mm 4 mps 743 mmHg 86%
    09:00 +1°C° 0 mm 4 mps 744 mmHg 82%
    10:00 +3°C° 0 mm 4 mps 745 mmHg 77%
    11:00 +5°C° 0 mm 4 mps 745 mmHg 72%
    12:00 +5°C° 0.2 mm 5 mps 745 mmHg 72%
    13:00 +5°C° 0.2 mm 5 mps 746 mmHg 72%
    14:00 +4°C° 0.2 mm 6 mps 746 mmHg 72%
    15:00 +4°C° 0.1 mm 6 mps 746 mmHg 72%
    16:00 +5°C° 0.1 mm 5 mps 746 mmHg 73%
    17:00 +4°C° 0.1 mm 4 mps 747 mmHg 73%
    18:00 +4°C° 0.1 mm 4 mps 747 mmHg 76%
    19:00 +3°C° 0.1 mm 3 mps 747 mmHg 79%
    20:00 +2°C° 0.1 mm 3 mps 748 mmHg 83%
    21:00 +2°C° 0 mm 3 mps 748 mmHg 84%
    22:00 +1°C° 0 mm 3 mps 748 mmHg 84%
    23:00 +2°C° 0 mm 2 mps 748 mmHg 85%

    23 February, Sunday

    Time Temperature Precipitation Wind Pressure Humidity
    00:00 +2°C° 0 mm 2 mps 748 mmHg 85%
    01:00 0°C° 0 mm 3 mps 748 mmHg 85%
    02:00 0°C° 0 mm 3 mps 747 mmHg 85%
    03:00 0°C° 0 mm 3 mps 747 mmHg 84%
    04:00 0°C° 0 mm 3 mps 747 mmHg 83%
    05:00 -1°C° 0 mm 3 mps 746 mmHg 82%
    06:00 0°C° 0 mm 3 mps 746 mmHg 81%
    07:00 0°C° 0 mm 3 mps 746 mmHg 80%
    08:00 0°C° 0 mm 4 mps 746 mmHg 78%
    09:00 +1°C° 0 mm 4 mps 745 mmHg 69%
    10:00 +3°C° 0 mm 5 mps 745 mmHg 61%
    11:00 +4°C° 0 mm 6 mps 745 mmHg 52%
    12:00 +5°C° 0 mm 6 mps 744 mmHg 49%
    13:00 +7°C° 0 mm 6 mps 744 mmHg 46%
    14:00 +7°C° 0 mm 6 mps 743 mmHg 43%
    15:00 +7°C° 0 mm 6 mps 743 mmHg 45%
    16:00 +7°C° 0 mm 5 mps 742 mmHg 47%
    17:00 +6°C° 0 mm 4 mps 741 mmHg 49%
    18:00 +6°C° 0 mm 4 mps 741 mmHg 51%
    19:00 +5°C° 0 mm 4 mps 741 mmHg 54%
    20:00 +4°C° 0 mm 3 mps 741 mmHg 57%
    21:00 +4°C° 0 mm 3 mps 741 mmHg 58%
    22:00 +4°C° 0 mm 3 mps 741 mmHg 60%
    23:00 +4°C° 0 mm 3 mps 741 mmHg 61%

    24 February, Monday

    Time Temperature Precipitation Wind Pressure Humidity
    00:00 +4°C° 0 mm 3 mps 741 mmHg 64%
    01:00 +4°C° 0 mm 4 mps 740 mmHg 66%
    02:00 +4°C° 0 mm 4 mps 740 mmHg 69%
    03:00 +4°C° 0 mm 4 mps 739 mmHg 70%
    04:00 +4°C° 0 mm 4 mps 739 mmHg 72%
    05:00 +3°C° 0 mm 4 mps 738 mmHg 73%
    06:00 +4°C° 0 mm 4 mps 737 mmHg 70%
    07:00 +5°C° 0 mm 4 mps 736 mmHg 68%
    08:00 +5°C° 0 mm 4 mps 736 mmHg 66%
    09:00 +7°C° 0 mm 5 mps 735 mmHg 59%
    10:00 +9°C° 0 mm 6 mps 734 mmHg 53%
    11:00 +11°C° 0 mm 7 mps 734 mmHg 46%
    12:00 +12°C° 0 mm 9 mps 733 mmHg 44%
    13:00 +14°C° 0 mm 10 mps 733 mmHg 43%
    14:00 +15°C° 0 mm 12 mps 733 mmHg 41%
    15:00 +12°C° 0.9 mm 12 mps 733 mmHg 48%
    16:00 +8°C° 0.9 mm 11 mps 734 mmHg 54%
    17:00 +5°C° 0.9 mm 10 mps 734 mmHg 60%
    18:00 +3°C° 0.2 mm 9 mps 736 mmHg 57%
    19:00 +4°C° 0.2 mm 8 mps 737 mmHg 54%
    20:00 +4°C° 0.2 mm 7 mps 738 mmHg 51%
    21:00 +3°C° 0 mm 7 mps 739 mmHg 54%
    22:00 +3°C° 0 mm 7 mps 739 mmHg 56%
    23:00 +2°C° 0 mm 7 mps 740 mmHg 58%
    Show more